[[{"header":{"parameterUnit":"m.s-1","parameterCategory":1,"la1":30.2992,"la2":30.254,"lo1":-89.0895,"lo2":-89.0443,"dy":0.0025,"dx":0.0025,"nx":19,"ny":19,"refTime":"2026-03-29T21:00:00:Z","depth":0,"parameterNumber":2,"parameterNumberName":"U-component_of_WINDS"},"data":[0,0,0,-5.0614,-5.0618,-5.0829,-5.083,-5.11,-5.1102,0,0,0,0,0,0,0,0,0,0,0,-5.0552,-5.0554,-5.0613,-5.0619,-5.0829,-5.083,-5.1099,-5.1102,0,0,0,0,0,0,0,0,0,0,0,-5.0551,-5.0553,-5.0555,-5.0619,-5.0829,-5.083,-5.1099,-5.0939,0,0,0,0,0,0,0,0,0,0,-5.0735,-5.0678,-5.0553,-5.0556,-5.0621,-5.0828,-5.083,-5.0932,-5.0949,-5.1005,0,-5.1054,0,-5.1082,-5.112,-5.1121,0,0,0,-5.0618,-5.0664,-5.072,-5.0556,-5.0623,-5.0828,-5.0734,-5.0942,-5.0962,-5.1028,-5.1058,-5.1068,-5.1087,-5.1122,-5.1123,-5.1444,-5.1445,0,0,-5.0606,-5.059,-5.0706,-5.0733,-5.0701,-5.0727,-5.074,-5.0954,-5.0985,-5.1059,-5.1074,-5.1091,-5.1124,-5.1126,-5.1442,-5.1444,0,0,0,-5.0573,-5.0582,-5.0633,-5.0722,-5.076,-5.0733,-5.0749,-5.0976,-5.0994,-5.1077,-5.1095,-5.1125,-5.1129,-5.1441,-5.1443,-5.15,0,0,0,-5.0566,-5.0562,-5.0628,-5.062,-5.0756,-5.087,-5.0765,-5.0979,-5.1003,-5.1093,-5.1125,-5.1131,-5.1439,-5.1442,-5.1495,-5.1529,0,0,0,-5.0538,-5.0559,-5.059,-5.0618,-5.0708,-5.0867,-5.0898,-5.0985,-5.1014,-5.1121,-5.1132,-5.1438,-5.1441,-5.149,-5.1522,-5.1607,0,0,0,-5.0502,-5.0638,-5.059,-5.0749,-5.0707,-5.0902,-5.0896,-5.1043,-5.1142,-5.1127,-5.1439,-5.1443,-5.1489,-5.1517,-5.1602,-5.1674,-5.1703,0,0,-5.0664,-5.0657,-5.0752,-5.0715,-5.0915,-5.0871,-5.108,-5.1186,-5.1212,-5.1365,-5.1373,-5.1497,-5.1521,-5.1606,-5.1877,-5.1899,0,0,0,-5.0798,-5.0865,-5.0922,-5.1015,-5.1101,-5.1176,-5.1252,-5.1292,-5.1423,-5.1287,-5.1553,-5.1568,-5.1618,-5.1653,-5.1673,-5.1716,-5.1459,-5.1459,-5.1458,-5.1,-5.1027,-5.1185,-5.1236,-5.1328,-5.1406,-5.1482,-5.1549,-5.1548,-5.1611,-5.1655,-5.1816,-5.1857,-5.1871,-5.1916,-5.1698,-5.1698,-5.1698,-5.1699,-5.1238,-5.1336,-5.1334,-5.1486,-5.1513,-5.1642,-5.1723,-5.1719,-5.1842,-5.1785,-5.1831,-5.1763,-5.1896,-5.1936,-5.1703,-5.1702,-5.1702,-5.1701,-5.1701,-5.1371,-5.1422,-5.147,-5.1608,-5.1712,-5.176,-5.1878,-5.19,-5.1921,-5.1966,-5.2014,-5.2013,-5.2013,-5.1988,-5.1989,-5.1989,-5.199,-5.199,-5.1991,-5.1489,-5.154,-5.1637,-5.174,-5.1803,-5.1888,-5.197,-5.2033,-5.2107,-5.2113,-5.2114,-5.2106,-5.1905,-5.1852,-5.1999,-5.1998,-5.1997,-5.1996,-5.1995,-5.1714,-5.1667,-5.1816,-5.1879,-5.2002,-5.2103,-5.213,-5.2256,-5.2312,-5.2369,-5.2354,-5.2202,-5.2196,-5.218,-5.2136,-5.2348,-5.2348,-5.2348,-5.2349,-5.1824,-5.1824,-5.1981,-5.2081,-5.2181,-5.2221,-5.2389,-5.2454,-5.2514,-5.255,-5.2524,-5.2469,-5.2452,-5.2456,-5.2434,-5.2393,-5.2666,-5.2666,-5.2667,-5.1963,-5.1974,-5.2111,-5.217,-5.2268,-5.2352,-5.251,-5.2624,-5.2683,-5.268,-5.2578,-5.2565,-5.2476,-5.2447,-5.2437,-5.2403,-5.2329,0,0]},{"header":{"parameterUnit":"m.s-1","parameterCategory":1,"la1":30.2992,"la2":30.254,"lo1":-89.0895,"lo2":-89.0443,"dy":0.0025,"dx":0.0025,"nx":19,"ny":19,"refTime":"2026-03-29T21:00:00:Z","depth":0,"parameterNumber":3,"parameterNumberName":"V-component_of_WINDS"},"data":[0,0,0,3.1356,3.1357,3.1412,3.1412,3.1486,3.1486,0,0,0,0,0,0,0,0,0,0,0,3.1343,3.1344,3.1356,3.1357,3.1412,3.1412,3.1486,3.1486,0,0,0,0,0,0,0,0,0,0,0,3.1343,3.1343,3.1344,3.1357,3.1412,3.1412,3.1485,3.1442,0,0,0,0,0,0,0,0,0,0,3.1389,3.138,3.1343,3.1344,3.1358,3.1412,3.1412,3.144,3.1445,3.1463,0,3.1481,0,3.1485,3.1492,3.1492,0,0,0,3.1354,3.1376,3.1388,3.1344,3.1358,3.1412,3.1386,3.1443,3.1448,3.1469,3.1482,3.1484,3.1486,3.1492,3.1493,3.161,3.161,0,0,3.1351,3.1354,3.1385,3.1392,3.1385,3.1385,3.1388,3.1446,3.1459,3.1482,3.1486,3.1487,3.1493,3.1493,3.1609,3.161,0,0,0,3.1344,3.1352,3.1363,3.1389,3.1399,3.1386,3.139,3.1457,3.146,3.1487,3.1488,3.1493,3.1494,3.1608,3.1609,3.1647,0,0,0,3.1342,3.1348,3.1361,3.1364,3.1398,3.1429,3.1399,3.1456,3.1462,3.1488,3.1493,3.1495,3.1607,3.1609,3.1644,3.1664,0,0,0,3.1338,3.1348,3.1357,3.1364,3.1388,3.1428,3.1434,3.1457,3.1464,3.1492,3.1495,3.1607,3.1608,3.1642,3.166,3.1697,0,0,0,3.1334,3.1388,3.1358,3.1419,3.1387,3.1451,3.1434,3.1481,3.151,3.1494,3.1607,3.1609,3.1641,3.1658,3.1694,3.1728,3.1742,0,0,3.1404,3.1396,3.1432,3.1407,3.1477,3.1443,3.1518,3.1541,3.154,3.1586,3.1589,3.1645,3.166,3.1696,3.1822,3.1834,0,0,0,3.1456,3.1482,3.15,3.1529,3.1549,3.1568,3.1579,3.1588,3.1628,3.1565,3.1668,3.1677,3.1698,3.1714,3.1724,3.1742,3.1617,3.1616,3.1616,3.1558,3.1556,3.1616,3.1621,3.1649,3.1662,3.1685,3.1698,3.1686,3.1711,3.1724,3.1801,3.182,3.1827,3.1846,3.1742,3.1742,3.1742,3.1742,3.166,3.1697,3.1683,3.1736,3.1733,3.1777,3.1792,3.1782,3.1822,3.179,3.1809,3.1774,3.184,3.1857,3.1745,3.1745,3.1744,3.1744,3.1744,3.1727,3.1745,3.1756,3.18,3.1833,3.1836,3.1876,3.1872,3.1868,3.1886,3.1901,3.19,3.1899,3.1893,3.1894,3.1894,3.1894,3.1894,3.1895,3.1792,3.1804,3.1839,3.1867,3.1887,3.1911,3.1926,3.1944,3.1963,3.1957,3.1957,3.1943,3.1847,3.1824,3.1899,3.1898,3.1897,3.1897,3.1897,3.1897,3.1873,3.1928,3.1947,3.1981,3.2015,3.201,3.2048,3.2062,3.2083,3.2065,3.1996,3.1987,3.1979,3.196,3.2065,3.2065,3.2065,3.2065,3.1953,3.195,3.2006,3.2037,3.2068,3.207,3.2131,3.2144,3.2152,3.2161,3.2145,3.2119,3.2111,3.2107,3.2097,3.2078,3.2212,3.2212,3.2212,3.2018,3.2017,3.2071,3.2081,3.2108,3.2131,3.2189,3.2225,3.223,3.2218,3.2168,3.2162,3.2119,3.2106,3.2092,3.2075,3.2042,0,0]}]]